STARLINK-11478 [DTC] (62557 NORAD) Tracking and Keplerian Element Data

This shows tracking and keplerian element data for the satellite.

Feedback or suggestion? Click here.




ElementValue
Catalog62557
NameSTARLINK-11478 [DTC]
Epoch Orbit370
Epoch Day34.04495625
Epoch Year2025
RAAN32.867
Inclination42.9991
Eccentricity0.0001405
Argument of Perigee279.8315
Mean Anonmoly80.2396
Mean Motion15.77853795
Decay Rate-6E-08
L11 62557U 25006D 25034.04495625 -.00000006 00000+0 28294-5 0 9993
L22 62557 42.9991 32.8670 0001405 279.8315 80.2396 15.77853795 3707



Live tracking and technical data element details for STARLINK-11478 [DTC] (NORAD 62557). STARLINK-11478 [DTC] can be tracked NOW for your location showing map with azimuth and elevation plus other details from your city location.







IsCatalogInMostPopularTable: catalog: 62557, numindb: 15
Update: records affected: 1



GetName: 62557 STARLINK-11478 [DTC]

Hit Count: updated at: Sun, 18 May 2025 23:39:05 GMT